Location: Saint-Usage
(47.1052°N, 5.2587°E)
Time: 20:31:58
(UTC+02:00)

X-37B - Pass Details

Date: 29 September 2021
Orbit: 385 x 389 km, 45.0° (Epoch: 13 October)

Event Time Altitude Azimuth Distance (km) Brightness Sun altitude
Exits shadow 06:35:01 18° 261° (W) 1,022 2.0 -11.0°
Maximum altitude 06:37:07 50° 190° (S) 498 1.0 -10.7°
Drops below altitude 10° 06:40:12 10° 114° (ESE) 1,413 4.4 -10.2°
Sets 06:42:18 0° 109° (ESE) 2,267 5.8 -9.8°
